Fort Collins, CO

6:35 AM MDT on August 19, 2017 (GMT -0600)
Fort Collins-Loveland Municipal

Weather History for KFNL - December, 2013

Change the Weather History Date:

Saturday, December 7, 2013

  Actual Average Record
Temperature  
Mean Temperature 0 °F -  
Max Temperature 8 °F - 62 °F (2003)
Min Temperature -9 °F - -9 °F (2013)
Degree Days  
Heating Degree Days 66    
Month to date heating degree days  
Cooling Degree Days 0    
Month to date cooling degree days  
Moisture  
Dew Point -4 °F    
Average Humidity 81    
Maximum Humidity 100    
Minimum Humidity 67    
Precipitation  
Precipitation 0.00 in - 0.06 in (2007)
Sea Level Pressure  
Sea Level Pressure 29.96 in    
Wind  
Wind Speed 2 mph (North)    
Max Wind Speed 9 mph    
Max Gust Speed -    
Visibility 10 miles    
Events      
T = Trace of Precipitation, MM = Missing Value Source: NWS Daily Summary

Daily Weather History Graph

Daily Weather History Graph

Search for Another Location

Airport or City:

Trip Planner

Search our weather history database for the weather conditions in past years. The results will help you decide how hot, cold, wet, or windy it might be!

Date:

Astronomy

Dec. 07, 2013 Rise Set
Actual Time 7:09 AM MST 4:33 PM MST
Civil Twilight 6:39 AM MST 5:03 PM MST
Nautical Twilight 6:05 AM MST 5:37 PM MST
Astronomical Twilight 5:32 AM MST 6:10 PM MST
Moon 10:55 AM MST (12/7) 10:18 PM MST (12/7)
Length of Visible Light 10h 24m
Length of Day
9h 23m
Waxing Crescent, 30% of the Moon is Illuminated
Dec 7
Waxing Crescent
Dec 9
First Quarter
Dec 17
Full
Dec 25
Last Quarter
Jan 1
New

Hourly Weather History & Observations

Time (MST) Temp. Windchill Dew Point Humidity Pressure Visibility Wind Dir Wind Speed Gust Speed Precip Events Conditions
12:15 AM -4.0 °F - -4.0 °F 100% 30.16 in 10.0 mi Calm Calm - N/A   Clear
12:35 AM -4.0 °F - -9.4 °F 78% 30.15 in 10.0 mi Calm Calm - N/A   Partly Cloudy
12:55 AM -5.8 °F - -7.6 °F 92% 30.15 in 10.0 mi Calm Calm - N/A   Partly Cloudy
1:15 AM -4.0 °F - -5.8 °F 92% 30.14 in 10.0 mi Calm Calm - N/A   Partly Cloudy
1:35 AM -5.8 °F -14.5 °F -7.6 °F 92% 30.14 in 9.0 mi North 3.5 mph - N/A   Clear
1:55 AM -5.8 °F -14.5 °F -7.6 °F 92% 30.13 in 9.0 mi NNE 3.5 mph - N/A   Clear
2:15 AM -5.8 °F -18.4 °F -9.4 °F 84% 30.13 in 10.0 mi NE 5.8 mph - N/A   Clear
2:35 AM -5.8 °F - -9.4 °F 84% 30.13 in 10.0 mi Calm Calm - N/A   Clear
2:55 AM -5.8 °F -14.5 °F -7.6 °F 92% 30.13 in 10.0 mi North 3.5 mph - N/A   Clear
3:15 AM -5.8 °F - -11.2 °F 77% 30.14 in 10.0 mi Calm Calm - N/A   Partly Cloudy
3:35 AM -9.4 °F - -16.6 °F 71% 30.12 in 10.0 mi Calm Calm - N/A   Scattered Clouds
3:55 AM -9.4 °F - -9.4 °F 100% 30.10 in 10.0 mi Calm Calm - N/A   Partly Cloudy
4:15 AM -7.6 °F - -14.8 °F 71% 30.11 in 10.0 mi Calm Calm - N/A   Clear
4:35 AM -7.6 °F - -14.8 °F 71% 30.11 in 10.0 mi Calm Calm - N/A   Clear
4:55 AM -5.8 °F - -5.8 °F 100% 30.11 in 10.0 mi Calm Calm - N/A   Clear
5:15 AM -5.8 °F - -13.0 °F 71% 30.10 in 10.0 mi Calm Calm - N/A   Clear
5:35 AM -7.6 °F -16.5 °F -9.4 °F 92% 30.10 in 10.0 mi North 3.5 mph - N/A   Clear
5:55 AM -5.8 °F - -7.6 °F 92% 30.08 in 10.0 mi Calm Calm - N/A   Clear
6:15 AM -5.8 °F -14.5 °F -11.2 °F 77% 30.08 in 10.0 mi NNE 3.5 mph - N/A   Clear
6:35 AM -5.8 °F -14.5 °F -7.6 °F 92% 30.08 in 10.0 mi NNE 3.5 mph - N/A   Clear
6:55 AM -7.6 °F - -11.2 °F 84% 30.09 in 10.0 mi Calm Calm - N/A   Clear
7:15 AM -5.8 °F - -9.4 °F 84% 30.08 in 10.0 mi Calm Calm - N/A   Clear
7:35 AM -5.8 °F - -7.6 °F 92% 30.07 in 8.0 mi Calm Calm - N/A   Scattered Clouds
7:55 AM -5.8 °F -14.5 °F -9.4 °F 84% 30.06 in 8.0 mi NNE 3.5 mph - N/A   Partly Cloudy
8:15 AM -2.2 °F -14.2 °F -4.0 °F 92% 30.06 in 9.0 mi North 5.8 mph - N/A   Clear
8:35 AM -2.2 °F - -7.6 °F 78% 30.06 in 9.0 mi Calm Calm - N/A   Clear
8:55 AM -0.4 °F -8.3 °F -4.0 °F 85% 30.07 in 9.0 mi NNE 3.5 mph - N/A   Clear
9:15 AM -0.4 °F - -2.2 °F 92% 30.06 in 9.0 mi Calm Calm - N/A   Clear
9:55 AM -0.4 °F - -2.2 °F 92% 30.05 in 10.0 mi Calm Calm - N/A   Clear
10:15 AM -0.4 °F - -2.2 °F 92% 30.04 in 10.0 mi Calm Calm - N/A   Clear
10:35 AM 1.4 °F -6.2 °F -2.2 °F 85% 30.03 in 10.0 mi North 3.5 mph - N/A   Clear
10:55 AM 3.2 °F - -0.4 °F 85% 30.02 in 10.0 mi Calm Calm - N/A   Clear
11:15 AM 3.2 °F -4.2 °F -0.4 °F 85% 30.00 in 10.0 mi North 3.5 mph - N/A   Clear
11:35 AM 3.2 °F - -0.4 °F 85% 29.99 in 5.0 mi Calm Calm - N/A   Clear
12:15 PM 5.0 °F -4.1 °F -2.2 °F 72% 29.95 in 7.0 mi North 4.6 mph - N/A   Clear
12:35 PM 6.8 °F - 1.4 °F 79% 29.93 in 10.0 mi Calm Calm - N/A   Clear
12:55 PM 6.8 °F - -0.4 °F 72% 29.92 in 10.0 mi Calm Calm - N/A   Clear
1:15 PM 6.8 °F - -0.4 °F 72% 29.90 in 10.0 mi Calm Calm - N/A   Clear
1:35 PM 6.8 °F -2.0 °F -2.2 °F 67% 29.89 in 10.0 mi North 4.6 mph - N/A   Clear
1:55 PM 8.6 °F 0.1 °F -0.4 °F 67% 29.88 in 10.0 mi NE 4.6 mph - N/A   Clear
2:15 PM 6.8 °F -5.9 °F -2.2 °F 67% 29.87 in 10.0 mi ENE 8.1 mph - N/A   Clear
2:35 PM 6.8 °F -3.5 °F -0.4 °F 72% 29.86 in 10.0 mi NE 5.8 mph - N/A   Clear
2:55 PM 8.6 °F -1.3 °F 1.4 °F 73% 29.85 in 10.0 mi NNE 5.8 mph - N/A   Clear
3:15 PM 6.8 °F -3.5 °F -0.4 °F 72% 29.85 in 10.0 mi North 5.8 mph - N/A   Clear
3:35 PM 6.8 °F -2.0 °F -0.4 °F 72% 29.85 in 10.0 mi North 4.6 mph - N/A   Clear
3:55 PM 6.8 °F -4.8 °F -0.4 °F 72% 29.85 in 10.0 mi North 6.9 mph - N/A   Clear
4:15 PM 6.8 °F -3.5 °F -0.4 °F 72% 29.84 in 10.0 mi North 5.8 mph - N/A   Clear
4:35 PM 5.0 °F -5.6 °F -0.4 °F 78% 29.84 in 10.0 mi North 5.8 mph - N/A   Clear
5:15 PM 6.8 °F -3.5 °F -0.4 °F 72% 29.83 in 10.0 mi NNE 5.8 mph - N/A   Scattered Clouds
5:55 PM 5.0 °F -5.6 °F -0.4 °F 78% 29.83 in 10.0 mi North 5.8 mph - N/A   Mostly Cloudy
6:15 PM 5.0 °F -4.1 °F -0.4 °F 78% 29.83 in 10.0 mi North 4.6 mph - N/A   Overcast
6:35 PM 5.0 °F -2.1 °F 1.4 °F 85% 29.83 in 10.0 mi North 3.5 mph - N/A   Overcast
6:55 PM 5.0 °F -4.1 °F -0.4 °F 78% 29.83 in 10.0 mi North 4.6 mph - N/A   Overcast
7:15 PM 6.8 °F -3.5 °F 1.4 °F 79% 29.83 in 10.0 mi North 5.8 mph - N/A   Overcast
7:35 PM 6.8 °F -4.8 °F 1.4 °F 79% 29.82 in 10.0 mi North 6.9 mph - N/A   Overcast
7:55 PM 6.8 °F -5.9 °F 1.4 °F 79% 29.82 in 10.0 mi North 8.1 mph - N/A   Overcast
8:15 PM 6.8 °F -6.9 °F 1.4 °F 79% 29.82 in 8.0 mi North 9.2 mph - N/A   Mostly Cloudy
8:35 PM 6.8 °F -5.9 °F 1.4 °F 79% 29.81 in 8.0 mi NNE 8.1 mph - N/A   Mostly Cloudy
8:55 PM 6.8 °F -3.5 °F 1.4 °F 79% 29.81 in 9.0 mi NNE 5.8 mph - N/A   Overcast
9:15 PM 6.8 °F -3.5 °F 1.4 °F 79% 29.80 in 10.0 mi North 5.8 mph - N/A   Overcast
9:35 PM 6.8 °F -3.5 °F 1.4 °F 79% 29.79 in 10.0 mi North 5.8 mph - N/A   Mostly Cloudy
9:55 PM 6.8 °F -3.5 °F 1.4 °F 79% 29.79 in 10.0 mi North 5.8 mph - N/A   Overcast
10:15 PM 6.8 °F -4.8 °F 3.2 °F 85% 29.78 in 10.0 mi North 6.9 mph - N/A   Overcast
10:55 PM 6.8 °F -4.8 °F 1.4 °F 79% 29.76 in 10.0 mi NNE 6.9 mph - N/A   Overcast
11:15 PM 6.8 °F -2.0 °F 1.4 °F 79% 29.76 in 10.0 mi NE 4.6 mph - N/A   Overcast
11:35 PM 6.8 °F - 3.2 °F 85% 29.76 in 10.0 mi Calm Calm - N/A   Overcast
11:55 PM 6.8 °F -2.0 °F 1.4 °F 79% 29.74 in 10.0 mi North 4.6 mph - N/A   Overcast